Location: Emblem
(62.4273°N, 6.4710°E)
Time: 23:20:28
(UTC+01:00)

Transit 2A Rocket - Pass Details

Date: 08 October 2024
Orbit: 584 x 906 km, 66.7° (Epoch: 05 November)

Event Time Altitude Azimuth Distance (km) Brightness Sun altitude
Rises 23:07:23 0° 268° (W) 3,538 8.9 -28.8°
Reaches altitude 10° 23:09:59 10° 272° (W) 2,589 8.2 -29.0°
Maximum altitude 23:15:58 59° 352° (N) 1,014 5.7 -29.4°
Enters shadow 23:17:29 45° 44° (NE) 1,173 5.9 -29.5°
